Kodiak, AK

10:46 AM AKDT en Octubre 17, 2017 (GMT -0800)
Kodiak

Tiempo Historia de PADQ - Enero, 2013

Change the Weather History Date:

Martes, Enero 1, 2013

  Actual Average Record
Temperature  
Temperatura media 37 ° F 31 ° F  
Temperatura máxima 39 ° F 36 ° F 46 ° F (1985)
Temperatura mínima 35 ° F 26 ° F -9 ° F (1917)
Degree Days  
Grados día de calefacción 28 34  
Month to date heating degree days 28 34  
Since 1 July heating degree days 4067 3877  
Cooling Degree Days 0 0  
Month to date cooling degree days 0 0  
Year to date cooling degree days 0 0  
Moisture  
Punto de rocío 34 ° F    
Average Humidity 0    
Maximum Humidity 0    
Minimum Humidity 0    
Precipitación  
Precipitación 0.61 pul 0.28 pul 1.25 pul (2008)
Month to date precipitation 0.61 0.28  
Year to date precipitation 0.61 0.28  
Nieve  
Nieve 0.00 pul 0.40 pul 3.80 pul (1967)
Month to date snowfall 0.0 0.4  
Since 1 July snowfall 16.4 21.7  
Grosos de nieve 0.00 pul    
Presión al nivel del mar  
Presión al nivel del mar 29.09 pul    
Viento  
Velocidad del viento 17 mph (SE)    
Velocidad máxima del viento 45 mph    
Max Gust Speed 56 mph    
Visibilidad 8 Millas    
Eventos Lluvia    
T = Trace of Precipitation, MM = Missing Value Source: NWS Daily Summary

Daily Weather History Graph

Daily Weather History Graph

Search for Another Location

Airport or City:

Trip Planner

Search our weather history database for the weather conditions in past years. The results will help you decide how hot, cold, wet, or windy it might be!

Date:

Astronomía

Jan. 01, 2013 Salida Puesta
Hora real 9:53 AM AKST 4:34 PM AKST
Crepúsculo civil 9:02 AM AKST 5:25 PM AKST
Crepúsculo náutico 8:11 AM AKST 6:16 PM AKST
Crepúsculo astronómico 7:23 AM AKST 7:04 PM AKST
Luna 10:24 PM AKST (1/1) 11:08 AM AKST (1/1)
Horas de luz 8h 22m
Horas de luz
6h 41m
Gibosa menguante, 82% of the Moon is Illuminated
Ene 1
Gibosa menguante
Ene 4
Cuarto menguante
Ene 11
Nueva
Ene 18
Cuarto creciente
Ene 26
Luna llena

Hourly Weather History & Observations

Hora (AKST) Temp. Vientos helados Punto de rocío Humedad Presión Visibilidad Wind Dir Velocidad del viento Velocidad de ráfagas Precip Eventos Condiciones
12:53 AM 39.0 ° F 25.9 ° F 34.0 ° F 82% 29.09 pul 7.0 mi ESE 38.0 mph 48.3 mph 0.02 pul Lluvia Lluvia débil
1:53 AM 39.0 ° F 25.9 ° F 35.1 ° F 86% 29.06 pul 6.0 mi ESE 38.0 mph 50.6 mph 0.00 pul Lluvia Lluvia débil
2:35 AM 37.4 ° F 23.3 ° F 35.6 ° F 93% 29.05 pul 4.0 mi ESE 40.3 mph 51.8 mph 0.06 pul Lluvia Lluvia
3:53 AM 37.0 ° F 24.1 ° F 35.1 ° F 93% 29.05 pul 4.0 mi ESE 32.2 mph 44.9 mph 0.11 pul Lluvia Lluvia débil
4:10 AM 37.4 ° F 24.0 ° F 35.6 ° F 93% 29.05 pul 5.0 mi ESE 35.7 mph 41.4 mph 0.00 pul Lluvia Lluvia débil
4:22 AM 37.4 ° F 25.0 ° F 35.6 ° F 93% 29.05 pul 5.0 mi ESE 29.9 mph 41.4 mph 0.02 pul Lluvia Lluvia
4:30 AM 37.4 ° F 25.6 ° F 35.6 ° F 93% 29.05 pul 5.0 mi ESE 26.5 mph 38.0 mph 0.03 pul Lluvia Lluvia débil
4:53 AM 37.9 ° F 26.1 ° F 35.1 ° F 89% 29.05 pul 5.0 mi ESE 27.6 mph 38.0 mph 0.03 pul Lluvia Lluvia débil
5:53 AM 37.0 ° F 26.4 ° F 35.1 ° F 93% 29.05 pul 6.0 mi SE 20.7 mph 31.1 mph 0.03 pul Lluvia Lluvia débil
6:53 AM 37.9 ° F 28.2 ° F 36.0 ° F 93% 29.04 pul 4.0 mi SE 18.4 mph 31.1 mph 0.02 pul Lluvia Lluvia débil
7:53 AM 37.9 ° F 27.9 ° F 35.1 ° F 89% 29.04 pul 7.0 mi SE 19.6 mph 28.8 mph 0.07 pul Lluvia Lluvia
8:53 AM 39.0 ° F 29.6 ° F 36.0 ° F 89% 29.05 pul 5.0 mi SE 18.4 mph 27.6 mph 0.05 pul Lluvia Lluvia débil
9:53 AM 37.9 ° F 29.2 ° F 35.1 ° F 89% 29.06 pul 5.0 mi SE 15.0 mph 24.2 mph 0.06 pul Lluvia Lluvia débil
10:53 AM 37.0 ° F 29.3 ° F 35.1 ° F 93% 29.08 pul 6.0 mi SSE 11.5 mph 17.3 mph 0.05 pul Lluvia Lluvia débil
11:53 AM 37.9 ° F 29.6 ° F 35.1 ° F 89% 29.07 pul 6.0 mi SE 13.8 mph 20.7 mph 0.03 pul Lluvia Lluvia débil
12:53 PM 37.9 ° F 30.0 ° F 35.1 ° F 89% 29.07 pul 9.0 mi SE 12.7 mph 19.6 mph 0.02 pul Lluvia Lluvia débil
1:53 PM 37.0 ° F 28.9 ° F 35.1 ° F 93% 29.07 pul 10.0 mi SE 12.7 mph 20.7 mph 0.02 pul Lluvia Lluvia débil
2:53 PM 37.9 ° F 28.9 ° F 35.1 ° F 89% 29.07 pul 8.0 mi SE 16.1 mph - 0.01 pul Lluvia Lluvia débil
3:53 PM 37.0 ° F 28.1 ° F 35.1 ° F 93% 29.07 pul 10.0 mi SE 15.0 mph - 0.01 pul Lluvia Lluvia débil
4:53 PM 36.0 ° F 31.1 ° F 34.0 ° F 93% 29.08 pul 10.0 mi SSE 5.8 mph - 0.00 pul   Nublado
5:00 PM 37.4 ° F 31.4 ° F 33.8 ° F 87% 29.08 pul 10.0 mi SSE 8.1 mph - N/A   Nublado
5:37 PM 35.6 ° F 31.7 ° F 33.8 ° F 93% 29.09 pul 10.0 mi SSE 4.6 mph - N/A   Muy nublado
5:53 PM 35.1 ° F 32.2 ° F 33.1 ° F 92% 29.10 pul 10.0 mi SSE 3.5 mph - N/A   Nublado
6:35 PM 35.6 ° F 32.8 ° F 33.8 ° F 93% 29.11 pul 10.0 mi Sur 3.5 mph - N/A   Muy nublado
6:53 PM 36.0 ° F 33.3 ° F 33.1 ° F 89% 29.12 pul 10.0 mi SSE 3.5 mph - N/A   Muy nublado
7:53 PM 36.0 ° F 31.1 ° F 33.1 ° F 89% 29.14 pul 10.0 mi Sur 5.8 mph - N/A   Nublado
8:53 PM 36.0 ° F 29.0 ° F 30.9 ° F 82% 29.16 pul 10.0 mi Sur 9.2 mph - N/A   Muy nublado
9:53 PM 36.0 ° F 26.7 ° F 30.0 ° F 79% 29.18 pul 10.0 mi SSE 15.0 mph - N/A   Nublado
10:53 PM 36.0 ° F 28.5 ° F 30.0 ° F 79% 29.21 pul 10.0 mi Sur 10.4 mph - N/A   Muy nublado
11:53 PM 35.1 ° F - 30.9 ° F 85% 29.24 pul 10.0 mi Sin viento Sin viento - N/A   Muy nublado